Weather History for Ironwood, MI

Change the Weather History Date:

Saturday, March 22, 2014

  Actual Average Record
Temperature  
Mean Temperature 17 °F -  
Max Temperature 26 °F 36 °F 59 °F (2012)
Min Temperature 6 °F 17 °F -7 °F (2013)
Degree Days  
Heating Degree Days 48    
Moisture  
Dew Point 6 °F    
Average Humidity 72    
Maximum Humidity 86    
Minimum Humidity 57    
Precipitation  
Precipitation 0.00 in - - ()
Sea Level Pressure  
Sea Level Pressure 30.18 in    
Wind  
Wind Speed 14 mph (NW)    
Max Wind Speed 21 mph    
Max Gust Speed 29 mph    
Visibility 6 miles    
Events      
Averages and records for this station are not official NWS values.
T = Trace of Precipitation, MM = Missing Value Source: NWS Daily Summary

Daily Weather History Graph

Daily Weather History Graph

Search for Another Location

Airport:

Trip Planner

Search our weather history database for the weather conditions in past years. The results will help you decide how hot, cold, wet, or windy it might be!

Date:

Astronomy

Mar. 22, 2014 Rise Set
Actual Time 6:59 AM CDT 7:15 PM CDT
Civil Twilight 6:29 AM CDT 7:46 PM CDT
Nautical Twilight 5:53 AM CDT 8:21 PM CDT
Astronomical Twilight 5:17 AM CDT 8:58 PM CDT
Moon 12:52 AM CDT (3/22) 10:25 AM CDT (3/22)
Length of Visible Light 13h 16m
Length of Day
12h 16m
Waning Gibbous, 65% of the Moon is Illuminated
Mar 22
Waning Gibbous
Mar 23
Last Quarter
Mar 30
New
Apr 7
First Quarter
Apr 15
Full

Hourly Weather History & Observations

Time (CDT) Temp. Windchill Dew Point Humidity Pressure Visibility Wind Dir Wind Speed Gust Speed Precip Events Conditions
12:15 AM 28.4 °F 18.0 °F 24.8 °F 86% 29.90 in 2.5 mi NW 12.7 mph 17.3 mph N/A   Overcast
12:35 AM 28.4 °F 17.5 °F 24.8 °F 86% 29.91 in 7.0 mi NW 13.8 mph 25.3 mph N/A   Overcast
12:55 AM 26.6 °F 13.8 °F 21.2 °F 80% 29.93 in 8.0 mi NNW 17.3 mph 27.6 mph N/A   Overcast
1:15 AM 24.8 °F 10.7 °F 17.6 °F 74% 29.96 in 7.0 mi NW 19.6 mph 26.5 mph N/A   Overcast
1:35 AM 24.8 °F 10.7 °F 17.6 °F 74% 29.97 in 6.0 mi NNW 19.6 mph 27.6 mph N/A   Overcast
1:55 AM 23.0 °F 8.7 °F 17.6 °F 80% 29.99 in 8.0 mi NNW 18.4 mph 26.5 mph N/A   Overcast
2:15 AM 21.2 °F 6.8 °F 17.6 °F 86% 30.00 in 6.0 mi NNW 17.3 mph 24.2 mph N/A   Overcast
2:35 AM 21.2 °F 6.8 °F 17.6 °F 86% 30.01 in 8.0 mi NNW 17.3 mph 24.2 mph N/A   Overcast
2:55 AM 19.4 °F 3.2 °F 12.2 °F 74% 30.02 in 7.0 mi NNW 20.7 mph 28.8 mph N/A   Overcast
3:15 AM 17.6 °F 1.7 °F 10.4 °F 73% 30.03 in 8.0 mi NW 18.4 mph - N/A   Overcast
3:35 AM 17.6 °F 3.2 °F 10.4 °F 73% 30.04 in 10.0 mi NW 15.0 mph 23.0 mph N/A   Overcast
3:55 AM 17.6 °F 4.3 °F 10.4 °F 73% 30.05 in 10.0 mi NW 12.7 mph 19.6 mph N/A   Overcast
4:15 AM 17.6 °F 3.7 °F 8.6 °F 68% 30.06 in 10.0 mi NW 13.8 mph 20.7 mph N/A   Overcast
4:35 AM 15.8 °F 2.1 °F 8.6 °F 73% 30.06 in 10.0 mi NNW 12.7 mph 21.9 mph N/A   Overcast
4:55 AM 15.8 °F 3.4 °F 8.6 °F 73% 30.07 in 10.0 mi NW 10.4 mph 19.6 mph N/A   Overcast
5:15 AM 15.8 °F 1.4 °F 6.8 °F 68% 30.08 in 10.0 mi NNW 13.8 mph 23.0 mph N/A   Scattered Clouds
5:35 AM 15.8 °F 5.1 °F 5.0 °F 62% 30.08 in 10.0 mi North 8.1 mph 17.3 mph N/A   Mostly Cloudy
5:55 AM 15.8 °F 1.4 °F 6.8 °F 68% 30.09 in 10.0 mi NNW 13.8 mph 17.3 mph N/A   Overcast
6:15 AM 15.8 °F 0.3 °F 6.8 °F 68% 30.10 in 10.0 mi NNW 16.1 mph 19.6 mph N/A   Overcast
6:35 AM 15.8 °F 3.4 °F 5.0 °F 62% 30.11 in 9.0 mi NW 10.4 mph 19.6 mph N/A   Overcast
6:55 AM 14.0 °F -0.8 °F 6.8 °F 73% 30.12 in 7.0 mi NNW 13.8 mph - N/A   Overcast
7:15 AM 14.0 °F 0.5 °F 8.6 °F 79% 30.12 in 1.5 mi NW 11.5 mph 19.6 mph N/A   Overcast
7:35 AM 12.2 °F -3.1 °F 6.8 °F 79% 30.13 in 1.5 mi NW 13.8 mph - N/A   Overcast
7:55 AM 12.2 °F -4.3 °F 6.8 °F 79% 30.14 in 3.0 mi NW 16.1 mph - N/A   Overcast
8:15 AM 12.2 °F -3.7 °F 5.0 °F 73% 30.15 in 2.0 mi NW 15.0 mph 21.9 mph N/A   Overcast
8:35 AM 10.4 °F -4.1 °F 6.8 °F 85% 30.16 in 2.0 mi WNW 11.5 mph - N/A   Overcast
8:55 AM 10.4 °F -3.3 °F 5.0 °F 79% 30.17 in 1.8 mi WNW 10.4 mph - N/A   Overcast
9:15 AM 10.4 °F -4.8 °F 5.0 °F 79% 30.18 in 1.0 mi WNW 12.7 mph - N/A   Overcast
9:35 AM 10.4 °F -3.3 °F 5.0 °F 79% 30.19 in 0.8 mi WNW 10.4 mph - N/A   Overcast
9:55 AM 10.4 °F -5.4 °F 6.8 °F 85% 30.20 in 0.5 mi WNW 13.8 mph - N/A   Overcast
10:15 AM 10.4 °F -6.6 °F 5.0 °F 79% 30.20 in 0.5 mi NW 16.1 mph 19.6 mph N/A   Overcast
10:35 AM 10.4 °F -6.0 °F 3.2 °F 73% 30.21 in 0.5 mi WNW 15.0 mph 19.6 mph N/A   Overcast
10:55 AM 10.4 °F -6.0 °F 3.2 °F 73% 30.21 in 0.5 mi WNW 15.0 mph - N/A   Overcast
11:15 AM 10.4 °F -5.4 °F 3.2 °F 73% 30.22 in 0.8 mi WNW 13.8 mph - N/A   Overcast
11:35 AM 10.4 °F -3.3 °F 3.2 °F 73% 30.22 in 1.2 mi NW 10.4 mph 16.1 mph N/A   Overcast
11:55 AM 10.4 °F -5.4 °F 3.2 °F 73% 30.22 in 4.0 mi NW 13.8 mph - N/A   Overcast
12:15 PM 10.4 °F -6.0 °F 3.2 °F 73% 30.23 in 3.0 mi NW 15.0 mph 19.6 mph N/A   Overcast
12:35 PM 10.4 °F -7.2 °F 3.2 °F 73% 30.23 in 7.0 mi NNW 17.3 mph - N/A   Overcast
12:55 PM 10.4 °F -5.4 °F 1.4 °F 67% 30.24 in 7.0 mi NW 13.8 mph 20.7 mph N/A   Overcast
1:15 PM 10.4 °F -4.1 °F 1.4 °F 67% 30.24 in 8.0 mi WNW 11.5 mph 18.4 mph N/A   Overcast
1:35 PM 12.2 °F -4.8 °F 1.4 °F 62% 30.24 in 6.0 mi NW 17.3 mph - N/A   Overcast
1:55 PM 12.2 °F -3.7 °F 1.4 °F 62% 30.24 in 3.0 mi NW 15.0 mph 20.7 mph N/A   Overcast
2:15 PM 12.2 °F -1.0 °F -0.4 °F 57% 30.25 in 5.0 mi NW 10.4 mph - N/A   Overcast
2:35 PM 12.2 °F -2.5 °F 3.2 °F 67% 30.25 in 3.0 mi West 12.7 mph - N/A   Overcast
2:55 PM 12.2 °F -1.0 °F 3.2 °F 67% 30.25 in 2.5 mi NW 10.4 mph - N/A   Overcast
3:15 PM 12.2 °F -3.7 °F 3.2 °F 67% 30.25 in 2.0 mi WNW 15.0 mph - N/A   Overcast
3:35 PM 12.2 °F -3.7 °F 3.2 °F 67% 30.25 in 2.5 mi NW 15.0 mph 19.6 mph N/A   Overcast
3:55 PM 12.2 °F -2.5 °F 3.2 °F 67% 30.25 in 2.5 mi WNW 12.7 mph 18.4 mph N/A   Overcast
4:15 PM 12.2 °F -4.3 °F 3.2 °F 67% 30.25 in 7.0 mi West 16.1 mph 19.6 mph N/A   Overcast
4:35 PM 12.2 °F -1.8 °F 3.2 °F 67% 30.25 in 6.0 mi WNW 11.5 mph - N/A   Overcast
4:55 PM 12.2 °F -3.1 °F 5.0 °F 73% 30.26 in 4.0 mi WNW 13.8 mph - N/A   Overcast
5:15 PM 12.2 °F -2.5 °F 3.2 °F 67% 30.26 in 8.0 mi WNW 12.7 mph - N/A   Overcast
5:35 PM 12.2 °F -1.8 °F 5.0 °F 73% 30.27 in 3.0 mi WNW 11.5 mph - N/A   Overcast
5:55 PM 12.2 °F -2.5 °F 3.2 °F 67% 30.27 in 2.0 mi WNW 12.7 mph 20.7 mph N/A   Overcast
6:15 PM 12.2 °F -1.8 °F 3.2 °F 67% 30.27 in 5.0 mi WNW 11.5 mph - N/A   Overcast
6:35 PM 12.2 °F -1.8 °F 5.0 °F 73% 30.27 in 4.0 mi WNW 11.5 mph 16.1 mph N/A   Mostly Cloudy
6:55 PM 12.2 °F -2.5 °F 3.2 °F 67% 30.28 in 3.0 mi WNW 12.7 mph - N/A   Overcast
7:15 PM 12.2 °F -0.2 °F 3.2 °F 67% 30.28 in 2.0 mi WNW 9.2 mph - N/A   Overcast
7:35 PM 12.2 °F 0.7 °F 5.0 °F 73% 30.29 in 1.5 mi WNW 8.1 mph - N/A   Overcast
7:55 PM 12.2 °F -1.0 °F 5.0 °F 73% 30.29 in 2.5 mi WNW 10.4 mph - N/A   Overcast
8:15 PM 12.2 °F -0.2 °F 6.8 °F 79% 30.30 in 7.0 mi West 9.2 mph - N/A   Overcast
8:35 PM 12.2 °F 0.7 °F 3.2 °F 67% 30.30 in 10.0 mi WNW 8.1 mph - N/A   Overcast
8:55 PM 12.2 °F -1.0 °F 3.2 °F 67% 30.31 in 9.0 mi West 10.4 mph - N/A   Overcast
9:15 PM 12.2 °F 0.7 °F 3.2 °F 67% 30.31 in 2.5 mi WNW 8.1 mph - N/A   Overcast
9:35 PM 12.2 °F -1.0 °F 3.2 °F 67% 30.32 in 5.0 mi WNW 10.4 mph - N/A   Overcast
9:55 PM 12.2 °F 1.7 °F 3.2 °F 67% 30.32 in 10.0 mi WNW 6.9 mph - N/A   Overcast
10:15 PM 12.2 °F -1.0 °F 3.2 °F 67% 30.32 in 10.0 mi WNW 10.4 mph - N/A   Overcast
10:35 PM 10.4 °F -1.5 °F 1.4 °F 67% 30.33 in 10.0 mi WNW 8.1 mph - N/A   Overcast
10:55 PM 10.4 °F 0.8 °F -0.4 °F 62% 30.33 in 10.0 mi WNW 5.8 mph - N/A   Scattered Clouds
11:15 PM 8.6 °F -1.3 °F -0.4 °F 67% 30.33 in 10.0 mi West 5.8 mph - N/A   Mostly Cloudy
11:35 PM 6.8 °F -2.0 °F -0.4 °F 72% 30.33 in 10.0 mi West 4.6 mph - N/A   Mostly Cloudy
11:55 PM 6.8 °F -2.0 °F -0.4 °F 72% 30.34 in 10.0 mi West 4.6 mph - N/A   Scattered Clouds